Flag for Canada Weather past 2 weeks in Calgary, Alberta, Canada

Now
68 °F

Broken clouds.


Feels Like: 68 °F
Forecast: 49 / 70 °F
Wind: 13 mph from West

Location: Calgary International

Current Time: Aug 31, 2015 at 8:13:19 PM

Latest Report: Aug 31, 2015 at 7:00 PM


Visibility: 30 mi

Pressure: 29.71 "Hg (26.24 "Hg at 1063m altitude)

Humidity: 30%

Dew point: 36 °F

Location of CalgaryLocation

Historic Weather in Calgary — Graph

°F

Calgary temperature yesterday

Maximum temperature yesterday: 72 °F (at 3:00 PM)
Minimum temperature yesterday: 52 °F (at 3:00 AM)
Average temperature yesterday: 60 °F

Past Weeks' High & Low Weather Summary

 TemperatureHumidityPressure
High81 °F (Aug 19, 4:00 PM)100% (Aug 21, 5:47 AM)30.29 "Hg (Aug 21, 5:47 AM)
Low37 °F (Aug 21, 4:00 PM)18% (Aug 25, 3:00 PM)29.49 "Hg (Aug 29, 6:00 PM)
Average60 °F60%29.94 "Hg
* Reported Aug 16 6:00 PM — Aug 31 6:00 PM, Calgary, Weather by CustomWeather, © 2015

Note: Actual official high and low records may vary slightly from our data, if they occured in-between our weather recording intervals... More about our weather records

Advertising

Calgary weather history for previous 24 hours

 ConditionsComfort  
Time TempWeatherWind HumidityBarometerVisibility
6:00 PM
Mon, Aug 31
70 °FBroken clouds.14 mph29%29.70 "Hg30 mi
5:00 PM70 °FBroken clouds.9 mph31%29.69 "Hg30 mi
4:00 PM68 °FBroken clouds.7 mph33%29.70 "Hg40 mi
3:00 PM66 °FBroken clouds.8 mph32%29.72 "Hg40 mi
2:00 PM68 °FBroken clouds.14 mph30%29.71 "Hg40 mi
1:00 PM68 °FCloudy.14 mph30%29.69 "Hg40 mi
12:00 PM66 °FBroken clouds.9 mph32%29.71 "Hg40 mi
11:00 AM64 °FPartly sunny.7 mph34%29.70 "Hg40 mi
10:00 AM61 °FPartly sunny.5 mph39%29.70 "Hg40 mi
9:00 AM57 °FBroken clouds.6 mph48%29.69 "Hg40 mi
8:00 AM54 °FBroken clouds.5 mph54%29.69 "Hg30 mi
7:00 AM52 °FPassing clouds.6 mph50%29.68 "Hg40 mi
6:00 AM54 °FPassing clouds.5 mph44%29.67 "Hg15 mi
5:00 AM55 °FPassing clouds.5 mph41%29.66 "Hg15 mi
4:00 AM55 °FPassing clouds.15 mph38%29.64 "Hg15 mi
3:00 AM55 °FPassing clouds.8 mph38%29.64 "Hg15 mi
2:00 AM55 °FPassing clouds.13 mph38%29.65 "Hg15 mi
1:00 AM57 °FPassing clouds.14 mph33%29.64 "Hg15 mi
12:00 AM52 °FClear.No wind44%29.66 "Hg15 mi
11:00 PM
Sun, Aug 30
55 °FClear.9 mph38%29.66 "Hg15 mi
10:00 PM57 °FPassing clouds.23 mph36%29.65 "Hg15 mi
9:00 PM57 °FScattered clouds.24 mph39%29.66 "Hg40 mi
8:00 PM59 °FBroken clouds.23 mph42%29.65 "Hg40 mi
Weather by CustomWeather, © 2015

See weather overviewHow to use our weather pages